Starlink 31603

operational
NORAD ID: 59201 Int'l Des: 2024-046 Owner: SPXS Country: US Constellation: starlink
LEOCIRCULAR

Starlink 31603について

説明を読み込み中...

リアルタイム位置

3D地球を読み込み中...

次回通過

高度履歴

Altitude vs Time

uPlot chart will show altitude changes over time

軌道要素

1 59201U 24046A 25303.76573846 .00002191 00000-0 86050-4 0 9998
2 59201 53.1602 39.1083 0001202 99.2894 260.8243 15.30206447 93151
Epoch: Oct 30, 2025 • Age: 21 hours

現在のステータス

高度 480.5 km
速度 7.63 km/s
衛星直下点 51.38°N, 122.02°W
打ち上げ日 Mar 11, 2024
運用期間 1.6 years
タイプ internet

技術仕様

分類 Payload
質量 730.00 kg
乾燥質量 700.00 kg
総質量 730.00 kg
長さ 0.30 m
直径 4.10 m
スパン 29.00 m
形状 Box + pan
製造者 SPXS
バスタイプ Starlink V2M
フェーズステータス In Orbit
所有者/国 SPXS/US

大規模コンステレーション

Loading constellations...